www.pogodaiklimat.ru
ПОГОДА в Балтиморе
Время
и дата
02:53 19.05
03:53 19.05
04:53 19.05
05:53 19.05
06:53 19.05
07:53 19.05
08:53 19.05
09:53 19.05
10:53 19.05
11:53 19.05
12:53 19.05
13:53 19.05
14:53 19.05
15:53 19.05
16:53 19.05
17:53 19.05
18:53 19.05
19:53 19.05
20:53 19.05
21:53 19.05
22:53 19.05
23:53 19.05
00:53 20.05
01:53 20.05
02:53 20.05
03:53 20.05
04:53 20.05
05:53 20.05
06:53 20.05
07:53 20.05
08:53 20.05
09:53 20.05
10:53 20.05
11:53 20.05
12:53 20.05
13:53 20.05
14:53 20.05
15:53 20.05
16:53 20.05
17:53 20.05
18:53 20.05
19:53 20.05
20:53 20.05
21:53 20.05
22:53 20.05
23:53 20.05
00:53 21.05
01:53 21.05
Ветер
(напр.,м/с)
Видим. Явления Облачность Т
(С)
Тd
(С)
f
(%)
Тe
(С)
Тes
(С)
Комфортность P
(гПа)
Po
(гПа)
Тmin
(С)
Tmax
(С)
R
(мм)
R24
(мм)
S
(см)
н/о н/о +18.9 +16.1 84 +20 +20 1014.7 1014.1
н/о н/о +18.9 +15.6 81 +20 +20 1015.1 1014.4
н/о н/о +18.3 +15.6 84 +19 +19 1015.2 1014.4
н/о н/о +18.9 +16.1 84 +20 +20 1016.0 1015.4
н/о н/о +19.4 +16.1 81 +21 +21 комфорт 1016.3 1015.4 +18.3 +19.4 4.8
н/о н/о +20.0 +16.1 78 +22 +22 комфорт 1016.6 1015.8
н/о н/о +21.1 +16.1 73 +24 +24 комфорт 1016.7 1015.8
н/о н/о +21.7 +16.1 70 +25 +25 комфорт 1016.6 1015.8
н/о н/о +21.7 +16.7 73 +26 +26 душно 1016.5 1015.8
н/о н/о +23.3 +15.6 62 +28 +28 душно 1016.6 1015.8
н/о н/о +24.4 +16.7 62 +28 +28 душно 1016.2 1015.4 +19.4 +25.0
н/о н/о +23.9 +15.6 60 +27 +27 жарко 1015.5 1014.7
н/о н/о +23.9 +15.6 60 +27 +27 жарко 1014.8 1014.1
н/о н/о +25.0 +16.1 58 +28 +28 жарко 1015.0 1014.1
н/о н/о +26.1 +16.1 54 +29 +29 жарко 1014.8 1014.1
н/о н/о +25.6 +16.7 58 +29 +29 душно 1014.2 1013.4
н/о н/о +23.9 +16.1 62 +27 +27 жарко 1013.9 1013.0 +23.3 +27.2
н/о н/о +22.8 +16.7 68 +27 +27 душно 1014.5 1013.7
н/о н/о +21.1 +16.7 76 +25 +25 комфорт 1015.5 1014.7
н/о н/о +20.6 +16.7 78 +24 +24 комфорт 1015.9 1015.1
н/о н/о +20.6 +16.7 78 +24 +24 комфорт 1016.3 1015.4
н/о н/о +20.0 +16.7 81 +22 +22 комфорт 1016.5 1015.8
н/о н/о +19.4 +15.0 76 +21 +21 комфорт 1017.0 1016.1 +19.4 +23.9
н/о н/о +18.9 +14.4 75 +20 +20 1016.5 1015.8
н/о н/о +18.3 +13.9 76 +19 +19 1016.1 1015.4
н/о н/о +17.2 +13.9 81 +17 +17 1016.1 1015.4
н/о н/о +17.2 +13.9 81 +17 +17 1016.6 1015.8
н/о н/о +17.8 +14.4 80 +18 +18 1017.8 1017.1
н/о н/о +18.3 +14.4 78 +19 +19 1018.8 1018.1 +17.2 +19.4
н/о н/о +19.4 +14.4 73 +21 +21 комфорт 1019.3 1018.5
н/о н/о +20.0 +14.4 70 +22 +22 комфорт 1019.1 1018.5
н/о н/о +21.1 +14.4 66 +24 +24 комфорт 1019.2 1018.5
н/о н/о +22.8 +15.0 61 +27 +27 душно 1019.3 1018.5
н/о н/о +23.3 +15.6 62 +28 +28 душно 1018.5 1017.8
н/о н/о +25.6 +16.1 56 +29 +29 душно 1018.1 1017.4 +18.9 +26.1
н/о н/о +27.2 +17.2 54 +31 +31 душно 1017.7 1017.1
н/о н/о +26.1 +16.7 56 +30 +30 душно 1016.9 1016.1
н/о н/о +26.1 +16.7 56 +30 +30 душно 1016.1 1015.4
н/о н/о +25.0 +16.7 60 +29 +29 душно 1014.9 1014.1
н/о н/о +23.9 +16.7 64 +27 +27 жарко 1015.1 1014.4
н/о н/о +22.8 +16.7 68 +27 +27 душно 1015.2 1014.4 +22.8 +27.2
н/о н/о +22.8 +16.1 66 +27 +27 душно 1015.7 1015.1
н/о н/о +22.2 +16.1 68 +26 +26 душно 1016.4 1015.8
н/о н/о +21.7 +16.1 70 +25 +25 комфорт 1016.5 1015.8
н/о н/о +21.1 +16.1 73 +24 +24 комфорт 1016.1 1015.4
н/о н/о +20.6 +15.6 73 +23 +23 комфорт 1016.2 1015.4
н/о н/о +20.0 +15.6 76 +22 +22 комфорт 1016.1 1015.4 +20.0 +22.8
н/о н/о +19.4 +15.6 79 +21 +21 комфорт 1015.9 1015.1
Местоположение метеостанции Inner Harbor: широта 39.2833 долгота -76.6167 высота над уровнем моря 6 м.
В архиве по умолчанию представлена погода в Балтиморе за последние 1-2 суток. Обновление информации о фактической погоде в базе происходит ежечасно! Архивные данные за месяц целиком и за предыдущие месяцы Вы можете получить, выбрав интересующий диапазон дат из раскрывающегося списка и нажав кнопку "Ввод!".
Внимание! Архив погоды МЕТАР в базе сайта по станциям, не включенным в климатический монитор, хранится не более 60 дней. Нет смысла пытаться выбрать более раннюю дату.
*Определитесь, кто Вы:
Внимание! Время в таблицах - местное (без учета летнего времени). Для получения всемирного времени необходимо вычесть поправку, которая равна -5 ч.
Смотрите также архив погоды в соседних городах и на ближайших метеорологических станциях:
Партнеры нашего сайта:      
Пояснения к столбцам:
  • Ветер - указаны скорость ветра в м/с - средняя за 10 мин, порывы в срок и между сроками (в фигурных скобках) и направление, откуда дует ветер: С - северный,
  • СВ - северо-восточный, В - восточный, ЮВ - юго-восточный, Ю - южный, ЮЗ - юго-западный, З - западный, СЗ - северо-западный.
  • Видимость - горизонтальная дальность видимости в метрах или километрах. При видимости от 1 до 10 км при отсутствии осадков обычно наблюдается дымка, при ухудшении видимости до 1 км и менее - туман. В сухую погоду видимость может ухудшаться дымом, пылью или мглою.
  • Явления - указаны атмосферные явления, наблюдавшиеся в срок или в последний час перед сроком; фигурными скобками обозначены явления, наблюдавшиеся между сроками (за 1-3 часа до срока); квадратными скобками обозначены град или гололедные отложения с указанием их диаметра в мм.
  • Облачность - указаны через наклонную черту общая и нижняя облачность в баллах и высота нижней границы облаков в метрах; квадратными скобками обозначены формы облаков: Ci - перистые, Cs - перисто-слоистые, Cc - перисто-кучевые, Ac - высококучевые, As - высокослоистые, Sc - слоисто-кучевые, Ns - слоисто-дождевые, Cu - кучевые, Cb - кучево-дождевые. Подробнее классификацию облаков см. в Атласе облаков (PDF).
  • T - Температура воздуха - температура, измеренная на высоте 2 м над землей.
  • Td - Температура точки росы - температура, при понижении до которой содержащийся в воздухе водяной пар достигнет насыщения.
  • f - Относительная влажность воздуха - влажноcть воздуха, измеренная на высоте 2 м над землей.
  • Te - Эффективная температура - температура, которую ощущает одетый по сезону человек в тени. Характеристика душности погоды. При расчете учитывается влияние влажности воздуха и скорости ветра на теплоощущения человека.
  • Tes - Эффективная температура на солнце - температура, которую ощущает человек, с поправкой на солнечный нагрев. Характеристика знойности погоды. Зависит от высоты солнца над горизонтом, облачности и скорости ветра. Ночью, в пасмурную погоду, а также при ветре 12 м/с и более поправка равна нулю.
  • P - Атмосферное давление - приведенное к уровню моря атмосферное давление.
  • Po - Атмосферное давление - измеренное на уровне метеостанции атмосферное давление.
  • Tmin - Минимальная температура - минимум температуры воздуха на высоте 2 м над землей.
  • Tmax - Максимальная температура - максимум температуры воздуха на высоте 2 м над землей.
  • R - Количество осадков - Количество выпавших осадков за период времени, мм. При наведении курсора мыши на число - период времени, за который выпало указанное количество осадков.
  • R24 - Количество осадков - Количество выпавших осадков за 24 часа, мм.
  • S - Снежный покров - Высота снежного покрова, см. При наведении курсора мыши на число - состояние снежного покрова и степень покрытия местности в баллах.